Location: Newark
(35.6799°N, 139.7636°E)
Time: 19:18:12
(UTC+00:00)

Courier 1B Rocket - Pass Details

Date: 18 December 2019
Orbit: 920 x 1202 km, 28.2° (Epoch: 28 January)

Event Time Altitude Azimuth Distance (km) Brightness Sun altitude
Exits shadow 19:55:59 26° 242° (WSW) 2,073 6.3 -21.5°
Maximum altitude 19:59:55 47° 184° (S) 1,415 5.9 -20.7°
Drops below altitude 10° 20:06:34 10° 112° (ESE) 2,843 8.7 -19.4°
Sets 20:09:17 0° 107° (ESE) 3,752 9.8 -18.9°
